Simultaneous Nadir Overpasses (SNOs) Predictions

Prediction of SNOs between NOAA-15 and METOP-C Satellite Orbit:

Table of predicted SNOs for the next 14.0 days since TLE Epoch: 12/9/2022
Index Date (NOAA-15) Time (NOAA-15) Lat,Lon (NOAA-15) SZA (NOAA-15 ) Date (METOP-C) Time (METOP-C) Lat,Lon (METOP-C) SZA (METOP-C ) Distance(km) Time Diff (sec)
1 12/20/2022 05:58:42 -80.99, -49.49 73.55 12/20/2022 05:57:34 -81.00, -52.48 73.85 51.98 68
2 12/20/2022 06:49:19 81.07, 116.29 106.37 12/20/2022 06:48:12 81.05, 116.12 106.31 3.33 67
3 12/20/2022 07:39:48 -81.07, -76.39 73.64 12/20/2022 07:38:52 -81.06, -76.50 73.68 2.31 56
4 12/20/2022 08:30:21 81.08, 90.85 106.36 12/20/2022 08:29:33 81.06, 90.99 106.34 2.91 48
5 12/20/2022 09:20:49 -81.06,-101.46 73.63 12/20/2022 09:20:13 -81.07,-101.62 73.66 2.75 36
6 12/20/2022 10:11:22 81.07, 65.77 106.37 12/20/2022 10:10:54 81.07, 65.87 106.37 1.85 28
7 12/20/2022 11:01:51 -81.07,-126.90 73.64 12/20/2022 11:01:34 -81.07,-126.74 73.63 2.81 17
8 12/20/2022 11:52:24 81.08, 40.32 106.36 12/20/2022 11:52:16 81.07, 40.38 106.35 1.49 8
9 12/20/2022 12:42:53 -81.08,-152.34 73.65 12/20/2022 12:42:56 -81.07,-152.24 73.65 2.16 3
10 12/20/2022 13:33:25 81.07, 15.25 106.37 12/20/2022 13:33:37 81.07, 15.26 106.38 0.70 12
11 12/20/2022 14:23:54 -81.07,-177.42 73.64 12/20/2022 14:24:17 -81.08,-177.36 73.62 1.21 23
12 12/20/2022 15:14:27 81.08, -10.20 106.35 12/20/2022 15:14:59 81.07, -10.24 106.36 1.10 32
13 12/20/2022 16:04:56 -81.08, 157.14 73.65 12/20/2022 16:05:39 -81.07, 157.15 73.64 0.85 43
14 12/20/2022 16:55:28 81.07, -35.28 106.36 12/20/2022 16:56:20 81.08, -35.36 106.38 1.65 52
15 12/20/2022 17:45:57 -81.07, 132.07 73.64 12/20/2022 17:47:00 -81.08, 132.02 73.61 1.25 63



Historial Predications of SNOs between NOAA-15 and METOP-C
